Tracking 19576 objects as of 17-Feb-2019
HD Live streaming from Space Station
objects crossing your sky now

COSMOS 1717

Track COSMOS 1717 now!
10-day predictions
COSMOS 1717 is classified as:


NORAD ID: 16450
Int'l Code: 1986-002B
Perigee: 1,482.1 km
Apogee: 1,520.4 km
Inclination: 74.0 °
Period: 115.9 minutes
Semi major axis: 7872 km
RCS: 0.7102 m2 (medium)
Launch date: January 9, 1986
Source: Commonwealth of Independent States (former USSR) (CIS)
Launch site: PLESETSK MISSILE AND SPACE COMPLEX (PKMTR)
aabbcc
Your satellite tracking list
Your tracking list is empty




NASA's NSSDC Master Catalog

Two Line Element Set (TLE):
1 16450U 86002B   19047.57848594 -.00000003 +00000-0 +89433-4 0  9998
2 16450 073.9881 103.6681 0024354 344.0968 125.1707 12.42952274502087
Source of the keplerian elements: AFSPC